Location: Assche-ter-Heiden
(50.9174°N, 4.1574°E)
Time: 01:12:05
(UTC+00:00)

Daily predictions for brighter satellites

Satellite Brightness Start Highest point End
(mag) Time Altitude Azimuth Time Altitude Azimuth Time Altitude Azimuth
CENTAUR R/B 4.4 02:43:02 31° NNE 02:43:02 31° NNE 02:48:47 10° ENE
Cosmos 2227 Rocket 4.2 04:07:20 17° SSE 04:07:20 17° SSE 04:08:28 10° SSE
USA 229 DEB 4.4 04:04:40 41° N 04:04:40 41° N 04:10:06 10° NE
USA 229 4.4 04:04:45 41° N 04:04:45 41° N 04:10:12 10° NE
ATLAS 3B R/B 3.7 04:06:41 33° N 04:08:05 37° NNE 04:14:19 10° E
Cosmos 2263 Rocket 4.0 04:06:51 22° N 04:08:51 27° NE 04:13:35 10° E
NOSS 3-1 (A) 4.2 04:10:51 44° N 04:10:51 44° N 04:16:07 10° NE
CZ-2C R/B 4.2 04:11:59 10° NNE 04:13:58 24° NNE 04:13:58 24° NNE
Cosmos 1656 4.0 04:17:31 62° E 04:17:31 62° E 04:22:28 10° NE
NOSS 3-2 (A) 4.1 04:15:49 53° NNW 04:17:43 71° NE 04:25:57 10° SE
BREEZE-M DEB (TANK) 4.1 04:22:23 32° SE 04:22:23 32° SE 04:28:11 10° ENE
USA 215 3.1 04:16:15 10° SE 04:22:45 73° SSW 04:22:45 73° SSW
Cosmos 2184 Rocket 3.9 04:28:02 71° SSW 04:28:02 71° SSW 04:33:35 10° S
Cosmos 2369 4.4 04:28:34 26° S 04:31:38 53° ESE 04:37:12 10° NE
CENTAUR R/B 3.5 04:30:14 34° NNW 04:33:45 59° NE 04:42:13 10° ESE
Cosmos 2154 Rocket 4.0 04:29:02 10° N 04:35:16 76° ENE 04:41:28 10° SSE
Okean O Rocket 4.1 04:33:28 10° NE 04:36:57 22° E 04:40:24 10° SE
SL-4 R/B 3.8 04:39:30 25° ESE 04:39:30 25° ESE 04:41:04 10° ESE
Cosmos 783 Rocket 4.4 04:41:04 84° SE 04:41:09 85° ESE 04:46:24 10° NNE
ADEOS Rocket 4.3 04:40:34 10° ESE 04:45:26 34° ENE 04:50:29 10° N
Cosmos 1943 Rocket 4.4 04:49:25 11° N 04:49:25 11° N 04:50:35 10° N
Cosmos 1610 Rocket 4.4 04:45:01 10° NNW 04:51:18 81° W 04:57:36 10° S
USA 238 DEB 3.7 04:51:11 45° NW 04:53:42 80° SW 05:01:06 10° SE
USA 238 3.7 04:51:16 45° NW 04:53:48 81° SW 05:01:12 10° SE
FENGYUN 3A 4.3 04:49:33 10° NNE 04:54:52 55° E 05:00:10 10° S
Cosmos 1980 Rocket 3.3 04:49:37 10° S 04:54:58 44° ESE 05:00:20 10° NE
Cosmos 2074 Rocket 4.3 04:59:00 45° SW 04:59:00 45° SW 05:03:46 10° SSW
Meteor 1-21 Rocket 4.4 04:53:20 10° N 04:59:13 80° ENE 05:05:08 10° SSE
Cosmos 773 Rocket 4.1 04:55:05 17° SSW 04:59:14 75° ESE 05:04:32 10° NNE
Lacrosse 5 rocket 2.1 05:00:19 47° N 05:00:19 47° N 05:04:22 10° ENE
Cosmos 1825 Rocket 4.0 04:57:38 21° N 05:00:23 58° ENE 05:04:40 10° SSE
Cosmos 1295 Rocket 4.4 04:54:54 10° N 05:01:11 88° E 05:07:21 10° S
Cosmos 1697 Rocket 2.6 04:59:42 24° SSW 05:03:15 83° ESE 05:08:54 10° NNE
Cosmos 2369 Rocket 4.3 05:04:30 12° NNW 05:04:30 12° NNW 05:06:12 10° N
Cosmos 1726 4.0 05:01:12 10° SSE 05:04:27 30° E 05:07:42 10° NNE
Orbus 7S? 3.2 05:07:27 79° ESE 05:07:27 79° ESE 05:12:17 10° ESE
Cosmos 44 Rocket 3.7 05:08:04 44° SSW 05:08:04 44° SSW 05:11:56 10° SSE
Cosmos 1758 4.4 05:11:14 31° N 05:11:14 31° N 05:13:27 10° N
Cosmos 962 Rocket 4.5 05:05:50 10° N 05:12:08 88° E 05:18:28 10° S
Cosmos 2227 4.3 05:08:41 24° NNW 05:12:12 73° ENE 05:17:50 10° SE
NOSS 2-2 (D) 3.9 05:11:27 35° S 05:12:43 54° SE 05:16:48 10° NE
Cosmos 1953 2.4 05:11:57 10° S 05:15:59 77° E 05:20:04 10° NNE
Genesis I 4.2 05:16:50 32° N 05:17:58 41° NE 05:21:38 10° ESE
MOS 1-B 4.4 05:13:02 10° NNE 05:18:52 81° ESE 05:24:40 10° SSW
COSMO-SKYMED 1 3.2 05:14:48 10° S 05:17:54 38° SW 05:17:54 38° SW
Cosmos 1606 Rocket 4.2 05:17:54 10° S 05:22:16 58° E 05:26:37 10° NNE
Cosmos 2082 4.5 05:22:58 32° WSW 05:22:58 32° WSW 05:27:19 10° SSW
Cosmos 1726 Rocket 4.5 05:20:32 10° S 05:24:50 50° E 05:29:07 10° NNE
CZ-4B DEB 4.2 05:21:05 10° NNE 05:26:42 86° ESE 05:32:14 10° SSW
Cosmos 2278 Rocket 4.5 05:25:09 10° N 05:27:41 13° NNE 05:30:13 10° NE
PSLV R/B 3.7 05:23:57 10° N 05:27:46 58° WNW 05:27:48 58° WNW
USA 32 4.0 05:22:52 10° N 05:28:09 85° E 05:33:24 10° S
BREEZE-M DEB (TANK) 3.8 05:27:28 46° WSW 05:28:25 64° S 05:36:20 10° ESE
Timation 1 Rocket 4.4 05:27:09 18° NNW 05:31:45 84° ENE 05:37:47 10° SSE
STARLINK-43 3.2 05:33:25 57° W 05:34:04 76° NNW 05:37:47 10° ENE
Cosmos 1538 Rocket 3.9 05:28:50 10° SSW 05:34:11 81° WNW 05:39:32 10° NNE
Cosmos 2181 Rocket 4.2 05:30:04 10° S 05:36:15 73° E 05:42:32 10° NNE
Cosmos 2341 Rocket 3.9 05:31:58 10° NNW 05:38:13 68° W 05:44:23 10° S
SJ-12 4.0 05:35:05 10° N 05:39:03 52° WNW 05:42:59 10° SSW
Cosmos 1470 4.2 05:41:50 23° NNW 05:41:50 23° NNW 05:43:44 10° N
SL-8 Rocket 3.9 05:36:04 10° N 05:42:19 84° W 05:48:29 10° S
Cosmos 2322 Rocket 4.3 05:38:25 10° SSE 05:43:14 30° ESE 05:48:07 10° NE
Cosmos 2344 3.6 05:37:55 10° SW 05:45:23 75° NW 05:54:02 10° NE
NOSS 3-2 (C) 4.0 05:40:39 21° NW 05:45:59 68° SW 05:54:14 10° SSE
ALOS 2.4 05:43:55 10° N 05:48:28 51° WNW 05:52:58 10° SW
Cosmos 2360 4.1 05:44:10 10° SW 05:49:52 70° WNW 05:55:38 10° NNE
NOSS 2-2 (C) 3.1 05:49:03 23° SW 05:51:17 73° NW 05:55:37 10° NE
Nadezhda 1 Rocket 4.3 05:47:21 10° SW 05:53:00 39° WNW 05:58:40 10° N
Cosmos 2263 Rocket 2.1 05:48:33 14° NNW 05:53:23 77° WSW 05:59:02 10° SSE
STARLINK-80 3.3 05:51:41 30° WSW 05:53:28 86° NNW 05:57:17 10° ENE
CZ-2C R/B 4.0 05:51:17 10° NNW 05:53:21 17° NW 05:53:21 17° NW
STARLINK-60 3.0 05:53:38 37° WNW 05:54:50 77° NNE 05:58:12 10° ESE
Cosmos 1328 3.7 05:51:06 10° NNW 05:55:07 71° W 05:59:04 10° S
Cosmos 2228 2.9 05:51:11 10° SSW 05:55:35 75° WNW 06:00:00 10° N
STARLINK-48 3.4 05:54:58 23° WSW 05:57:16 82° SSE 06:01:11 10° ENE
NOAA 6 4.0 05:52:55 10° NNE 05:58:07 74° WNW 06:03:18 10° SSW
SJ-7 4.3 05:55:18 10° NNE 05:59:27 78° WNW 06:03:36 10° SSW
ATLAS 3B R/B 2.7 05:53:57 16° NW 05:59:30 88° SW 06:06:24 10° SE
Cosmos 1656 4.5 05:58:59 22° W 06:01:07 29° NW 06:05:53 10° NNE
Abrixas rocket 3.0 06:00:19 26° WSW 06:01:22 34° SSW 06:04:10 10° SE
NOSS 2-2 (E) 3.5 05:59:53 22° WSW 06:02:09 53° NW 06:06:36 10° NE
CZ-3 R/B 4.3 05:54:12 10° WSW 06:02:29 16° SSW 06:07:05 10° S
NOSS 3-4 (A) 4.3 05:56:52 10° SSW 06:02:38 52° ESE 06:08:48 10° NE
NOSS 3-4 (C) 4.4 05:56:59 10° SSW 06:02:45 51° ESE 06:08:53 10° NE
NOSS 8 (H) 4.4 06:01:38 30° W 06:02:46 46° NW 06:05:56 10° NE
Helios 1A Rocket 2.8 06:00:33 10° NNE 06:04:40 75° WNW 06:08:47 10° SSW
USA 215 4.3 06:01:15 10° S 06:06:32 26° SW 06:10:06 17° W
Cosmos 1953 Rocket 3.8 06:02:36 10° NNW 06:06:53 46° W 06:11:05 10° SSW
Cosmos 2278 3.9 06:01:55 10° SW 06:07:29 50° NW 06:13:03 10° NNE
Cosmos 1844 Rocket 3.8 06:02:10 10° NNW 06:07:30 41° NE 06:12:48 10° ESE
Cosmos 1680 Rocket 3.8 06:02:41 10° SSW 06:07:59 74° ESE 06:13:19 10° NNE
METEOR-M 4.4 06:03:00 10° N 06:08:04 43° WNW 06:13:04 10° SW
STARLINK-26 3.4 06:05:19 15° WSW 06:08:07 68° SSE 06:11:38 10° ENE
Cosmos 1371 Rocket 4.0 06:03:32 10° NNW 06:08:51 86° WSW 06:14:10 10° SSE
FALCON 9 DEB 3.2 06:07:43 25° WNW 06:09:38 73° NNE 06:13:09 10° E
Okean-O 4.4 06:05:56 10° NNE 06:10:02 35° E 06:14:07 10° SSE
CZ-2C R/B 4.1 06:06:49 10° SSE 06:11:23 68° ENE 06:15:54 10° N
Cosmos 2218 Rocket 4.1 06:06:02 10° NNW 06:12:21 62° W 06:18:35 10° S
BREEZE M DEB (TANK) 4.1 06:00:25 16° W 06:12:38 72° SSW 06:16:54 10° ESE
Okean O Rocket 1.8 06:09:15 10° N 06:13:35 51° WNW 06:17:53 10° SW
STARLINK-33 4.4 06:10:28 10° SW 06:13:56 43° SSE 06:17:25 10° ENE
Cosmos 1437 4.2 06:13:12 10° N 06:16:02 35° ENE 06:18:52 10° SE
Cosmos 2369 4.3 06:10:48 10° WSW 06:16:04 36° NW 06:21:21 10° NNE
SL-4 R/B 3.3 06:15:07 16° WSW 06:16:40 20° SW 06:19:18 10° SSE
STARLINK-66 4.3 06:14:43 10° SW 06:18:12 46° SSE 06:21:43 10° ENE
SL-16 R/B 2.8 06:15:16 10° SSW 06:20:51 62° ESE 06:26:28 10° NE
STARLINK-45 4.4 06:17:52 10° SW 06:21:46 50° SSE 06:25:41 10° ENE
STARLINK-42 4.3 06:18:44 10° SW 06:22:24 48° SSE 06:26:06 10° ENE
STARLINK-55 4.1 06:19:22 10° SW 06:22:53 49° SSE 06:26:24 10° ENE
STARLINK-29 3.2 06:20:28 19° WNW 06:22:54 76° NNE 06:26:26 10° E
H-2A R/B 2.7 06:19:12 10° N 06:23:08 72° WNW 06:27:01 10° SSW
STARLINK-70 4.4 06:19:25 10° SW 06:23:19 49° SSE 06:27:13 10° ENE
STARLINK-52 3.2 06:21:08 18° WNW 06:23:36 73° NNE 06:27:06 10° E
STARLINK-64 4.4 06:20:08 10° SW 06:23:50 48° SSE 06:27:32 10° ENE
Cosmos 2112 Rocket 4.1 06:18:52 10° SSW 06:24:14 85° ESE 06:29:38 10° NNE
CENTAUR R/B 3.4 06:17:24 12° NW 06:24:45 56° WSW 06:33:09 10° SSE
STARLINK-76 4.5 06:20:58 10° SW 06:24:51 49° SSE 06:28:45 10° ENE
CZ-4B R/B 3.4 06:20:56 10° N 06:26:22 52° WNW 06:31:40 10° SW
STARLINK 4.4 06:22:36 10° SW 06:26:30 50° SSE 06:30:25 10° ENE
STARLINK-32 4.4 06:24:15 10° SW 06:28:09 51° SSE 06:32:05 10° ENE
Cosmos 158 Rocket 4.2 06:24:40 10° SSW 06:29:31 71° ESE 06:34:27 10° NNE
COSMOS 2455 2.9 06:23:34 10° SW 06:29:31 62° NW 06:35:32 10° NNE
STARLINK-40 4.4 06:25:54 10° SW 06:29:49 52° SSE 06:33:45 10° ENE
ADEOS Rocket 3.1 06:25:40 10° S 06:30:54 45° W 06:36:19 10° NNW
STARLINK-28 3.8 06:27:44 10° SW 06:31:14 57° SSE 06:34:44 10° ENE
STARLINK-44 4.3 06:27:31 10° SW 06:31:27 53° SSE 06:35:23 10° ENE
Cosmos 2360 Rocket 4.0 06:27:34 10° S 06:32:42 37° ESE 06:37:51 10° NE
STARLINK-37 4.2 06:29:15 10° SW 06:33:12 56° SSE 06:37:09 10° ENE
STARLINK-36 4.3 06:30:49 10° SW 06:34:46 55° SSE 06:38:43 10° ENE
FENGYUN 3A 4.5 06:30:22 10° N 06:34:55 29° WNW 06:39:28 10° WSW
SOZ 3.7 06:33:06 14° WNW 06:35:19 88° NNE 06:37:31 10° ESE
Meteor 1-11 4.5 06:30:47 10° NNW 06:36:07 48° W 06:41:29 10° SSW
STARLINK-68 4.1 06:32:37 10° SW 06:36:35 60° SSE 06:40:34 10° ENE
ATLAS 2AS CENTAUR R/B 3.1 06:29:46 10° SW 06:37:49 87° NW 06:45:49 10° NE
STARLINK-63 4.1 06:34:10 10° SW 06:38:08 59° SSE 06:42:07 10° ENE
Feng Yun 1-1 Rocket 4.5 06:32:21 10° NNE 06:38:20 90° WSW 06:44:14 10° SSW
Meteor 2-10 4.5 06:33:14 10° SW 06:38:27 41° WNW 06:43:32 10° N
Cosmos 1624 Rocket 4.1 06:33:20 10° NNW 06:38:29 58° WSW 06:43:33 10° S
Cosmos 2058 Rocket 3.3 06:34:33 10° SSW 06:38:49 48° WNW 06:43:05 10° N
Cosmos 1980 Rocket 2.6 06:33:42 10° WSW 06:39:03 41° NW 06:44:26 10° NNE
CZ-4 R/B 3.1 06:35:15 10° NNE 06:39:16 40° E 06:43:14 10° SSE
Cosmos 1300 3.0 06:35:50 10° S 06:39:37 71° E 06:43:27 10° NNE
STARLINK-35 4.1 06:35:44 10° SW 06:39:42 59° SSE 06:43:40 10° ENE
Cosmos 1726 3.2 06:36:41 10° SW 06:39:42 23° WNW 06:42:43 10° NNW
Cosmos 1908 3.7 06:36:02 10° SW 06:39:44 40° WNW 06:43:29 10° N
Lacrosse 5 rocket 2.4 06:35:58 12° WNW 06:39:53 38° N 06:44:02 10° ENE
STARLINK-51 4.1 06:37:22 10° SW 06:41:20 60° SSE 06:45:19 10° ENE
STARLINK-61 3.6 06:38:27 10° WSW 06:42:25 80° SSE 06:46:24 10° ENE
Cosmos 1703 4.4 06:39:24 10° NW 06:42:35 23° W 06:45:45 10° SW
STARLINK-30 4.1 06:39:02 10° SW 06:43:00 61° SSE 06:46:59 10° ENE
Cosmos 1340 Rocket 4.1 06:40:52 10° SSE 06:44:36 43° E 06:48:20 10° NNE
STARLINK-72 4.0 06:40:40 10° SW 06:44:39 63° SSE 06:48:38 10° ENE
STARLINK-50 4.0 06:42:18 10° SW 06:46:18 64° SSE 06:50:18 10° ENE
EXPRESS MD2 2.1 06:43:39 10° W 06:46:21 71° S 06:48:29 10° E
Cosmos 1697 Rocket 3.7 06:43:19 10° W 06:47:55 25° NW 06:52:31 10° NNE
STARLINK-59 3.9 06:44:03 10° WSW 06:48:03 67° SSE 06:52:04 10° ENE
SMAP 3.2 06:44:07 10° N 06:48:41 55° WNW 06:53:13 10° SSW
STARLINK-56 4.0 06:45:37 10° WSW 06:49:37 66° SSE 06:53:37 10° ENE
CZ-2C R/B 3.3 06:45:15 10° SE 06:50:24 57° ENE 06:55:41 10° N
Cosmos 2369 Rocket 4.5 06:50:41 10° N 06:51:06 10° N 06:51:30 10° NNE
Starlink (trailer) 3.9 06:47:16 10° WSW 06:51:16 67° SSE 06:55:17 10° ENE
Cosmos 2056 Rocket 3.9 06:47:41 10° NNW 06:52:53 47° WSW 06:58:04 10° S
STARLINK-38 3.9 06:48:54 10° WSW 06:52:54 69° SSE 06:56:56 10° ENE
Cosmos 1953 4.1 06:50:57 10° W 06:52:58 13° WNW 06:55:00 10° NNW
STARLINK-65 3.9 06:50:33 10° WSW 06:54:33 70° SSE 06:58:34 10° ENE
STARLINK-75 3.6 06:51:36 10° WSW 06:55:28 76° SSE 06:59:22 10° ENE
Genesis I 4.2 06:52:03 10° WNW 06:55:29 30° WSW 06:58:51 10° S
STARLINK-53 3.8 06:52:15 10° WSW 06:56:16 73° SSE 07:00:18 10° ENE
Cosmos 1934 Rocket 4.2 06:53:32 10° N 06:59:39 80° E 07:05:49 10° SSE
Cosmos 923 Rocket 4.5 06:55:18 10° SW 07:00:14 39° NW 07:05:14 10° NNE
In-Cosmos 22 Rocket 4.1 06:57:06 10° NNW 07:02:34 86° W 07:07:53 10° S
